GSAT-17

Last updated on Tue Oct 14 2025 00:02:34 GMT+0000 (Coordinated Universal Time)

1 42815U 17040B 25286.62322441 -.00000271 00000+0 00000+0 0 9998 2 42815 0.0642 90.1649 0006341 165.2844 84.8647 1.00270589 30313
UTC large
Height (km)
Speed (km/s)
/
Latitude / Longitude
Inclination (degrees)
Orbital Period (minutes)
Azimuth
Elevation
Range (km)
Doppler Factor

Next 0 passes for location: London (51.5072 / 0.1276)

Sorry there are no passes over London.